Powrót do katalogu

FALCON HEAVY R/B

AktywnyHEO
NORAD 60134·ROCKET BODY·🇺🇸 United States

Wystrzelony Jun 25, 2024 z Cape Canaveral Space Force Station

Loading…

Następne Przeloty (najbliższe 24 godziny)

TLE

ŚwieżeSource: Space-Track

Epoka: Sep 14, 2026, 01:51 UTC

1 60134U 24119B   26257.07753212 -.00000125  00000-0  00000-0 0  9999
2 60134   6.0469  63.6855 2944240 246.8865  79.7844  1.51714934 12308

Śledź FALCON HEAVY R/B w czasie rzeczywistym z AllMySat

Download on the App Store